Bentonville, AR

12:47 PM CST on February 25, 2017 (GMT -0600)
Bentonville Municipal-Thaden

Weather History for KVBT - March, 2012

Change the Weather History Date:

Tuesday, March 6, 2012

  Actual Average Record
Temperature  
Mean Temperature 60 °F -  
Max Temperature 69 °F 53 °F 85 °F (1956)
Min Temperature 51 °F 31 °F 15 °F (1962)
Degree Days  
Heating Degree Days 5    
Growing Degree Days 10 (Base 50)    
Moisture  
Dew Point 35 °F    
Average Humidity 39    
Maximum Humidity 48    
Minimum Humidity 28    
Precipitation  
Precipitation 0.00 in - - ()
Sea Level Pressure  
Sea Level Pressure 30.06 in    
Wind  
Wind Speed 14 mph (South)    
Max Wind Speed 24 mph    
Max Gust Speed 38 mph    
Visibility 10 miles    
Events      
Averages and records for this station are not official NWS values.
T = Trace of Precipitation, MM = Missing Value Source: NWS Daily Summary

Daily Weather History Graph

Daily Weather History Graph

Search for Another Location

Airport or City:

Trip Planner

Search our weather history database for the weather conditions in past years. The results will help you decide how hot, cold, wet, or windy it might be!

Date:

Astronomy

Mar. 06, 2012 Rise Set
Actual Time 6:39 AM CST 6:16 PM CST
Civil Twilight 6:14 AM CST 6:42 PM CST
Nautical Twilight 5:44 AM CST 7:12 PM CST
Astronomical Twilight 5:14 AM CST 7:42 PM CST
Moon 4:45 PM CST (3/6) 5:13 AM CST (3/6)
Length of Visible Light 12h 28m
Length of Day
11h 36m
Waxing Gibbous, 96% of the Moon is Illuminated
Mar 6
Waxing Gibbous
Mar 8
Full
Mar 14
Last Quarter
Mar 22
New
Mar 30
First Quarter

Hourly Weather History & Observations

Time (CST) Temp. Dew Point Humidity Pressure Visibility Wind Dir Wind Speed Gust Speed Precip Events Conditions
12:15 AM 51.8 °F 30.2 °F 44% 30.15 in 10.0 mi SSE 10.4 mph - N/A   Clear
12:35 AM 51.8 °F 30.2 °F 44% 30.15 in 10.0 mi SSE 10.4 mph - N/A   Clear
12:55 AM 53.6 °F 32.0 °F 44% 30.15 in 10.0 mi SSE 12.7 mph 17.3 mph N/A   Clear
1:15 AM 55.4 °F 30.2 °F 38% 30.15 in 10.0 mi South 12.7 mph 18.4 mph N/A   Clear
1:35 AM 55.4 °F 30.2 °F 38% 30.14 in 10.0 mi South 11.5 mph 17.3 mph N/A   Clear
1:55 AM 55.4 °F 32.0 °F 41% 30.14 in 10.0 mi South 12.7 mph 16.1 mph N/A   Clear
2:15 AM 55.4 °F 32.0 °F 41% 30.13 in 10.0 mi SSE 15.0 mph 20.7 mph N/A   Clear
2:35 AM 55.4 °F 32.0 °F 41% 30.12 in 10.0 mi South 13.8 mph - N/A   Clear
2:55 AM 53.6 °F 32.0 °F 44% 30.11 in 10.0 mi South 13.8 mph 19.6 mph N/A   Clear
3:15 AM 53.6 °F 32.0 °F 44% 30.10 in 10.0 mi South 10.4 mph 16.1 mph N/A   Clear
3:35 AM 53.6 °F 32.0 °F 44% 30.09 in 10.0 mi South 9.2 mph 17.3 mph N/A   Clear
3:55 AM 53.6 °F 33.8 °F 47% 30.09 in 10.0 mi South 9.2 mph - N/A   Clear
4:15 AM 53.6 °F 33.8 °F 47% 30.09 in 10.0 mi South 9.2 mph - N/A   Clear
4:35 AM 53.6 °F 33.8 °F 47% 30.09 in 10.0 mi South 9.2 mph 17.3 mph N/A   Clear
4:55 AM 53.6 °F 33.8 °F 47% 30.09 in 10.0 mi South 11.5 mph 18.4 mph N/A   Clear
5:15 AM 55.4 °F 33.8 °F 44% 30.09 in 10.0 mi South 11.5 mph 18.4 mph N/A   Clear
5:35 AM 53.6 °F 33.8 °F 47% 30.09 in 10.0 mi South 12.7 mph 19.6 mph N/A   Clear
5:55 AM 53.6 °F 33.8 °F 47% 30.09 in 10.0 mi South 12.7 mph 18.4 mph N/A   Clear
6:35 AM 53.6 °F 33.8 °F 47% 30.09 in 10.0 mi South 13.8 mph 19.6 mph N/A   Clear
6:55 AM 53.6 °F 32.0 °F 44% 30.09 in 10.0 mi South 13.8 mph 19.6 mph N/A   Clear
7:15 AM 53.6 °F 32.0 °F 44% 30.09 in 10.0 mi South 15.0 mph 21.9 mph N/A   Clear
7:35 AM 55.4 °F 30.2 °F 38% 30.09 in 10.0 mi South 12.7 mph 20.7 mph N/A   Clear
7:55 AM 55.4 °F 30.2 °F 38% 30.10 in 10.0 mi South 15.0 mph 21.9 mph N/A   Clear
8:15 AM 57.2 °F 30.2 °F 36% 30.10 in 10.0 mi South 15.0 mph 25.3 mph N/A   Clear
8:35 AM 59.0 °F 30.2 °F 34% 30.10 in 10.0 mi SSW 16.1 mph 27.6 mph N/A   Clear
8:55 AM 60.8 °F 28.4 °F 29% 30.10 in 10.0 mi South 19.6 mph 27.6 mph N/A   Clear
9:15 AM 60.8 °F 28.4 °F 29% 30.10 in 10.0 mi SSW 20.7 mph 29.9 mph N/A   Clear
9:35 AM 60.8 °F 30.2 °F 31% 30.10 in 10.0 mi SSW 17.3 mph 25.3 mph N/A   Clear
9:55 AM 60.8 °F 30.2 °F 31% 30.09 in 10.0 mi South 16.1 mph 26.5 mph N/A   Clear
10:15 AM 62.6 °F 32.0 °F 32% 30.09 in 10.0 mi SSW 24.2 mph 31.1 mph N/A   Clear
10:35 AM 62.6 °F 33.8 °F 34% 30.09 in 10.0 mi SSW 21.9 mph 36.8 mph N/A   Clear
10:55 AM 62.6 °F 33.8 °F 34% 30.08 in 10.0 mi South 18.4 mph 29.9 mph N/A   Clear
11:15 AM 64.4 °F 35.6 °F 34% 30.08 in 10.0 mi South 18.4 mph 31.1 mph N/A   Clear
11:35 AM 64.4 °F 37.4 °F 37% 30.08 in 10.0 mi SSW 17.3 mph 26.5 mph N/A   Clear
11:55 AM 64.4 °F 37.4 °F 37% 30.07 in 10.0 mi South 19.6 mph 35.7 mph N/A   Clear
12:15 PM 62.6 °F 37.4 °F 39% 30.06 in 10.0 mi South 24.2 mph 33.4 mph N/A   Clear
12:55 PM 66.2 °F 37.4 °F 35% 30.02 in 10.0 mi SSW 20.7 mph 31.1 mph N/A   Clear
1:35 PM 68.0 °F 37.4 °F 33% 30.00 in 10.0 mi South 20.7 mph 38.0 mph N/A   Clear
1:55 PM 69.8 °F 37.4 °F 31% 29.99 in 10.0 mi SSW 19.6 mph 34.5 mph N/A   Clear
2:15 PM 69.8 °F 35.6 °F 28% 29.99 in 10.0 mi South 21.9 mph 34.5 mph N/A   Clear
2:35 PM 69.8 °F 37.4 °F 31% 29.98 in 10.0 mi South 23.0 mph 33.4 mph N/A   Clear
2:55 PM 69.8 °F 35.6 °F 28% 29.97 in 10.0 mi South 17.3 mph 32.2 mph N/A   Clear
3:15 PM 69.8 °F 37.4 °F 31% 29.97 in 10.0 mi South 18.4 mph 29.9 mph N/A   Clear
3:35 PM 69.8 °F 37.4 °F 31% 29.97 in 10.0 mi South 18.4 mph 29.9 mph N/A   Clear
4:15 PM 69.8 °F 39.2 °F 33% 29.97 in 10.0 mi South 18.4 mph 26.5 mph N/A   Clear
4:35 PM 69.8 °F 41.0 °F 35% 29.96 in 10.0 mi South 21.9 mph 27.6 mph N/A   Clear
4:55 PM 68.0 °F 41.0 °F 37% 29.96 in 10.0 mi South 18.4 mph 31.1 mph N/A   Clear
5:15 PM 68.0 °F 41.0 °F 37% 29.96 in 10.0 mi South 19.6 mph 29.9 mph N/A   Clear
5:35 PM 66.2 °F 41.0 °F 40% 29.96 in 10.0 mi South 24.2 mph 33.4 mph N/A   Clear
5:55 PM 66.2 °F 41.0 °F 40% 29.96 in 10.0 mi South 19.6 mph 28.8 mph N/A   Clear
6:55 PM 64.4 °F 41.0 °F 42% 29.97 in 10.0 mi South 11.5 mph 17.3 mph N/A   Clear
7:35 PM 62.6 °F 41.0 °F 45% 29.96 in 10.0 mi South 13.8 mph 19.6 mph N/A   Clear
7:55 PM 62.6 °F 41.0 °F 45% 29.96 in 10.0 mi South 13.8 mph 19.6 mph N/A   Clear
8:15 PM 62.6 °F 41.0 °F 45% 29.97 in 10.0 mi South 11.5 mph 21.9 mph N/A   Clear
8:35 PM 62.6 °F 41.0 °F 45% 29.97 in 10.0 mi South 16.1 mph 21.9 mph N/A   Clear
8:55 PM 62.6 °F 42.8 °F 48% 29.96 in 10.0 mi South 16.1 mph 26.5 mph N/A   Clear
9:15 PM 62.6 °F 42.8 °F 48% 29.97 in 10.0 mi South 13.8 mph 19.6 mph N/A   Clear
9:35 PM 62.6 °F 42.8 °F 48% 29.97 in 10.0 mi South 13.8 mph 20.7 mph N/A   Clear
9:55 PM 62.6 °F 42.8 °F 48% 29.97 in 10.0 mi South 16.1 mph 25.3 mph N/A   Clear
10:15 PM 62.6 °F 42.8 °F 48% 29.97 in 10.0 mi South 15.0 mph 24.2 mph N/A   Clear
11:15 PM 62.6 °F 44.6 °F 52% 29.96 in 10.0 mi South 16.1 mph 26.5 mph N/A   Clear
11:35 PM 60.8 °F 44.6 °F 55% 29.96 in 10.0 mi South 15.0 mph 21.9 mph N/A   Clear
11:55 PM 60.8 °F 44.6 °F 55% 29.96 in 10.0 mi South 17.3 mph 23.0 mph N/A   Clear